Other Public Products
Issued by NWS Grand Forks, ND

Home | Current Version | Previous Version | Graphics & Text | Print | Product List | Glossary On
Versions: 1 2 3 4 5 6 7 8 9 10 11 12 13 14 15 16 17 18 19 20 21 22 23 24 25 26 27 28 29 30 31 32 33 34 35 36 37 38 39 40 41 42 43 44 45 46 47 48 49 50
000
FPUS83 KFGF 291410
OPUFGF
PRAIRIE TO PINES WEATHER ROUNDUP
NATIONAL WEATHER SERVICE EASTERN NORTH DAKOTA/GRAND FORKS ND
900 AM CDT FRI APR 29 2016

 **SATELLITE DATA USED TO AUGMENT SKY COVER AT AUTOMATED STATIONS**
 *****  WEATHER ACROSS EASTERN NORTH DAKOTA  *****

CITY           SKY/WX    TMP DP  RH WIND       PRES   REMARKS
GRAND FORKS    CLOUDY    45  32  60 NE8       30.22R
GRAND FORKS AF MOSUNNY   43  30  60 NE7       30.22S
GRAND CITY NWS NOT AVBL
BUXTON         NOT AVBL
DEVILS LAKE    MOSUNNY   45  29  53 E12       30.22S
FARGO          SUNNY     46  37  71 CALM      30.19R
WAHPETON ARPT  SUNNY     46  36  66 W13       30.20R
$$

 *****  WEATHER ACROSS CENTRAL AND WESTERN NORTH DAKOTA  *****

CITY           SKY/WX    TMP DP  RH WIND       PRES   REMARKS
JAMESTOWN      SUNNY     45  30  55 NE9       30.18R
BISMARCK       CLOUDY    43  32  65 E6        30.20R
MINOT          SUNNY     45  21  38 N6        30.21R
MINOT AFB      SUNNY     40  22  48 NE3       30.20S
GARRISON         N/A     46  26  45 E8        30.19R
WILLISTON      MOSUNNY   45  28  51 VRB5      30.17F
DICKINSON      CLOUDY    40  30  67 E9        30.13R
HETTINGER      CLOUDY    40  34  79 E6        30.15R
$$

 *****  OTHER OBSERVATIONS NORTHEAST NORTH DAKOTA  *****

CITY           SKY/WX    TMP DP  RH WIND       PRES   REMARKS
WALHALLA       FAIR      41  25  52 N6        30.25F
LANGDON        FAIR      48  27  43 E9        30.23R
CAVALIER       FAIR      41  27  56 N8        30.24F
GRAFTON        FAIR      45  32  61 NE6       30.25S
CANDO          FAIR      46  25  42 E6        30.25S
FORT TOTTEN      N/A     46  28  50 E6        29.95S
ROLLA          FAIR      41  18  38 N3        30.24S
RUGBY          FAIR      41  25  52 E12       30.22R
 ***** THE ABOVE OBSERVATIONS ARE NON NWS ARE NOT QUALITY
        CONTROLLED AND MAY MIS-REPORT RAIN FOR SNOW...
$$

 *****  OTHER OBSERVATIONS SOUTHEAST NORTH DAKOTA *****

CITY           SKY/WX    TMP DP  RH WIND       PRES   REMARKS
COOPERSTOWN    NOT AVBL
VALLEY CITY    FAIR      45  30  57 NE9       30.21R
OAKES            N/A    N/A N/A N/A MISG        N/A
GWINNER        FAIR      45  39  81 SW8       30.19S
SHEYENNE NWR     N/A     42  34  72 NW3       29.95S
BUFFALO        NOT AVBL
WYNDMERE         N/A     48  39  71 W13         N/A
 ***** THE ABOVE OBSERVATIONS ARE NON NWS ARE NOT QUALITY
       CONTROLLED AND MAY MIS-REPORT RAIN FOR SNOW...
$$

  *****  WEATHER ACROSS NORTHERN MINNESOTA  *****

CITY           SKY/WX    TMP DP  RH WIND       PRES   REMARKS
FLAG ISLAND    SUNNY     43  30  61 NE7       30.24S
WARROAD        SUNNY     41  34  75 NE8       30.24S
ROSEAU         SUNNY     45  36  70 E6        30.24R
HALLOCK        SUNNY     50  30  46 E7        30.23S
THF RVR FALLS  CLOUDY    45  30  57 NE8       30.22S
HALSTAD        NOT AVBL
FOSSTON        MOSUNNY   43  34  70 NE10      30.20R
BAUDETTE       SUNNY     48  30  49 NE9       30.21F
WASKISH        SUNNY     46  34  61 NE8       30.20F
CROOKSTON      PTSUNNY   46  32  57 E9        30.21S
$$
  *****  WEATHER ACROSS CENTRAL AND WEST MINNESOTA  *****

CITY           SKY/WX    TMP DP  RH WIND       PRES   REMARKS
BEMIDJI        MOSUNNY   44  31  61 NE8       30.18S
PARK RAPIDS    MOSUNNY   44  35  70 SW6       30.18R
WADENA         CLOUDY    43  39  87 W6        30.19R
DETROIT LAKES  SUNNY     45  37  76 SW3       30.19R
MOORHEAD       SUNNY     43  37  81 CALM      30.20S
FERGUS FALLS   SUNNY     45  37  76 W6        30.19S
ELBOW LAKE     FAIR      44  39  83 SW7       30.21R
MORRIS MN      MOSUNNY   45  39  81 W5        30.21R
STAPLES        SUNNY     43  37  81 NW3       30.19S
WHEATON        SUNNY     48  41  76 W3        30.22S
$$
  *****  WEATHER ELSEWHERE ACROSS MINNESOTA  *****

CITY           SKY/WX    TMP DP  RH WIND       PRES   REMARKS
DULUTH         MOSUNNY   44  26  49 NE7       30.18S
INTRNTL FALLS  SUNNY     44  31  60 NE8       30.21S
ELY            CLOUDY    41  30  65 NE7       30.19S
CLOQUET        SUNNY     43  27  52 NE7       30.18S
BRAINERD       SUNNY     43  28  55 CALM      30.19R
HIBBING        SUNNY     43  27  53 E6        30.18S
ALEXANDRIA     MOSUNNY   43  38  82 W7        30.20S
SAINT CLOUD    CLOUDY    43  35  73 CALM      30.20R
MINNEAPOLIS    MOSUNNY   44  39  82 NW7       30.19F
$$

  *****  WEATHER ACROSS SOUTH DAKOTA  *****

CITY           SKY/WX    TMP DP  RH WIND       PRES   REMARKS
SIOUX FALLS    CLOUDY    41  36  82 NE13      30.14F
BROOKINGS        N/A     40  36  86 MISG      30.16R
WATERTOWN      CLOUDY    42  38  85 NE9       30.15F
HURON          MOSUNNY   43  37  79 NE14      30.15F
SISSETON         N/A     47  38  71 W3        30.19S
ABERDEEN       PTSUNNY   45  38  76 NE3       30.18F
MITCHELL       CLOUDY    41  38  89 NE8       30.16S
PIERRE         CLOUDY    42  36  79 E8        30.14F
MOBRIDGE       CLOUDY    45  41  86 CALM      30.14S
RAPID CITY     CLOUDY    38  34  85 NE5       30.10F
$$

  *****  SOME WEATHER IN NEARBY STATES *****

CITY           SKY/WX    TMP DP  RH WIND       PRES   REMARKS
GLASGOW MT     CLOUDY    43  36  76 E10       30.11S
GREAT FALLS MT CLOUDY    37  35  92 CALM      29.97S
CHEYENNE WY    FOG       31  31 100 SE9       29.97F VSB<1/4 WCI  23
SCOTTSBLUFF NE CLOUDY    38  35  89 NE9       30.03F
OMAHA NE       CLOUDY    46  40  79 NE14      30.07F
DES MOINES IA  CLOUDY    48  41  76 N8        30.08R
DAVENPORT IA   CLOUDY    44  40  85 NE14      30.09R
CHICAGO IL     CLOUDY    43  39  86 N12       30.06F
EAU CLAIRE WI  CLOUDY    44  38  79 CALM      30.17R
LA CROSSE WI   CLOUDY    44  37  76 N9        30.16R
$$

  *****  SOME NATIONAL WEATHER *****

CITY           SKY/WX    TMP DP  RH WIND       PRES   REMARKS
LA GUARDIA NY  CLOUDY    53  30  41 E12       30.12R
RALEIGH NC     PTSUNNY   64  61  88 VRB5      30.01S
ATLANTA GA     CLOUDY    74  55  51 NE7       30.03S
NEW ORLEANS LA PTSUNNY   78  72  81 SE14      29.93S
OKLAHOMA CITY  CLOUDY    58  56  93 E9        29.79F
ALBUQUERQUE NM MOSUNNY   46  39  76 CALM      29.86R
SALT LAKE CITY PTSUNNY   47  32  56 CALM      29.86S
LOS ANGELES CA PTSUNNY   57  49  74 E8        30.00R
BOISE ID       MOSUNNY   47  39  74 NW3       29.90S
SEATTLE WA     CLOUDY    49  42  77 S6        30.09R
$$

*** WEATHER ACROSS MANITOBA...SASKATCHEWAN AND ONTARIO ***
                ***ONTARIO***

CITY           SKY/WX    TMP DP  RH WIND       PRES   REMARKS
GERALDTON      CLOUDY    37  28  70 NE8       30.22S
THUNDER BAY    PTSUNNY   41  30  65 NW7       30.21S
SIOUX LOOKOUT  PTSUNNY   41  30  65 NE6       30.25S
TORONTO        PTSUNNY   45  19  36 NE10      30.09S
BIG TROUT LK   CLOUDY    32  27  80 N9        30.33  WCI  24
PICKLE LAKE    CLOUDY    34  28  80 NE5       30.27S
DRYDEN         CLOUDY    43  32  65 E6        30.24R
KENORA         MOSUNNY   43  30  61 N7        30.25S
$$
                *** MANITOBA***

CITY           SKY/WX    TMP DP  RH WIND       PRES   REMARKS
BRANDON        MOSUNNY   46  18  31 NE13      30.26S
DAUPHIN        SUNNY     41  21  45 NW3       30.29F
ISLAND LAKE    MOSUNNY   34  19  55 N2        30.38S
PILOT MOUND      N/A     46  21  36 NE8         N/A
THE PAS        MOSUNNY   45  23  42 SE8       30.31S
THOMPSON       CLOUDY    37  18  44 S7        30.34F
WINNIPEG       MOSUNNY   43  27  52 E3        30.26F
LYNN LAKE      CLOUDY    45  27  49 SW3       30.22S
CHURCHILL      MOSUNNY   23  21  93 E7        30.47S WCI  15
GILLAM         PTSUNNY   30  23  74 N6        30.42S WCI  24
$$
                ***SASKATCHEWAN***

CITY           SKY/WX    TMP DP  RH WIND       PRES   REMARKS
ESTEVAN        PTSUNNY   45  18  33 E14       30.20F
KINDERSLEY     PTSUNNY   46  28  49 SE10      30.08S
LLOYDMINSTER   PTSUNNY   45  27  49 SE7       30.07S
PRINCE ALBERT  PTSUNNY   45  30  57 E6        30.20S
REGINA         MOSUNNY   45  16  31 SE13      30.20F
YORKTON        SUNNY     43  23  45 SE9       30.27S   C1F1C2F2C3F3C4F4C5F5C6F6C7F7C8F8C9F9CaFaCbFbCcFcCdFdCe!


USA.gov is the U.S. government's official web portal to all federal, state and local government web resources and services.